| time (UTC) | temp F | wind direction | speed MPH | gust MPH | rain 1hr in | rain 24hr in | rain mn in | humidity % | barometer mb |
| 20260504081051 | 47 | 23 | 4.0 | 6.0 | 0.00 | 0.00 | 0.00 | 55 | 1012.0 |
| 20260504045049 | 53 | 211 | 3.0 | 4.0 | 0.00 | 0.00 | 0.00 | 43 | 1013.0 |
| 20260504044015 | 54 | 144 | 3.0 | 4.0 | 0.00 | 0.00 | 0.00 | 43 | 1013.0 |
| 20260504043020 | 54 | 145 | 5.0 | 6.0 | 0.00 | 0.00 | 0.00 | 43 | 1013.0 |
| 20260504042024 | 55 | 110 | 5.0 | 6.0 | 0.00 | 0.00 | 0.00 | 42 | 1012.9 |
| 20260504041029 | 55 | 90 | 6.0 | 6.0 | 0.00 | 0.00 | 0.00 | 42 | 1012.9 |
| 20260504040015 | 55 | 87 | 6.0 | 7.0 | 0.00 | 0.00 | 0.00 | 42 | 1012.9 |
| 20260504035019 | 56 | 62 | 6.0 | 6.0 | 0.00 | 0.00 | 0.00 | 42 | 1012.8 |
| 20260504034024 | 55 | 79 | 6.0 | 6.0 | 0.00 | 0.00 | 0.00 | 42 | 1012.6 |
| 20260504033027 | 55 | 64 | 6.0 | 6.0 | 0.00 | 0.00 | 0.00 | 41 | 1012.6 |
| 20260504032015 | 56 | 55 | 6.0 | 7.0 | 0.00 | 0.00 | 0.00 | 41 | 1012.5 |
| 20260504031019 | 56 | 68 | 6.0 | 6.0 | 0.00 | 0.00 | 0.00 | 41 | 1012.4 |
| 20260504030018 | 56 | 79 | 5.0 | 5.0 | 0.00 | 0.00 | 0.00 | 41 | 1012.4 |
| 20260504025057 | 56 | 65 | 5.0 | 5.0 | 0.00 | 0.00 | 0.00 | 40 | 1012.2 |
| 20260504024014 | 57 | 45 | 6.0 | 6.0 | 0.00 | 0.00 | 0.00 | 40 | 1012.1 |
| 20260504023040 | 59 | 45 | 6.0 | 7.0 | 0.00 | 0.00 | 0.00 | 39 | 1012.1 |
| 20260504022024 | 61 | 41 | 7.0 | 7.0 | 0.00 | 0.00 | 0.00 | 36 | 1012.1 |
| 20260504021028 | 62 | 27 | 8.0 | 9.0 | 0.00 | 0.00 | 0.00 | 35 | 1012.1 |
| 20260504020032 | 63 | 37 | 6.0 | 6.0 | 0.00 | 0.00 | 0.00 | 34 | 1011.8 |
| 20260504015019 | 66 | 9 | 8.0 | 8.0 | 0.00 | 0.00 | 0.00 | 32 | 1011.8 |
| 20260504014043 | 66 | 42 | 8.0 | 9.0 | 0.00 | 0.00 | 0.00 | 31 | 1011.8 |
| 20260504013028 | 66 | 11 | 10.0 | 12.0 | 0.00 | 0.00 | 0.00 | 30 | 1011.8 |
| 20260504012032 | 69 | 34 | 10.0 | 12.0 | 0.00 | 0.00 | 0.00 | 28 | 1011.8 |
| 20260504011019 | 70 | 30 | 9.0 | 11.0 | 0.00 | 0.00 | 0.00 | 27 | 1011.8 |
| 20260504010023 | 71 | 45 | 9.0 | 10.0 | 0.00 | 0.00 | 0.00 | 26 | 1012.0 |
| 20260504005028 | 72 | 22 | 4.0 | 6.0 | 0.00 | 0.00 | 0.00 | 25 | 1012.0 |
| 20260504004052 | 71 | 25 | 9.0 | 12.0 | 0.00 | 0.00 | 0.00 | 25 | 1012.0 |
| 20260504003018 | 72 | 52 | 7.0 | 10.0 | 0.00 | 0.00 | 0.00 | 24 | 1012.1 |
| 20260504002023 | 71 | 23 | 7.0 | 8.0 | 0.00 | 0.00 | 0.00 | 26 | 1012.1 |
| 20260504001047 | 72 | 21 | 6.0 | 9.0 | 0.00 | 0.00 | 0.00 | 25 | 1012.1 |
| 20260504000032 | 74 | 53 | 9.0 | 12.0 | 0.00 | 0.00 | 0.00 | 22 | 1012.2 |
| 20260503235038 | 73 | 5 | 11.0 | 14.0 | 0.00 | 0.00 | 0.00 | 25 | 1012.2 |
| 20260503234023 | 73 | 25 | 16.0 | 19.0 | 0.00 | 0.00 | 0.00 | 24 | 1012.2 |
| 20260503233047 | 75 | 307 | 12.0 | 19.0 | 0.00 | 0.00 | 0.00 | 20 | 1012.3 |
| 20260503232031 | 75 | 313 | 8.0 | 14.0 | 0.00 | 0.00 | 0.00 | 19 | 1012.4 |
| 20260503231018 | 76 | 308 | 11.0 | 14.0 | 0.00 | 0.00 | 0.00 | 19 | 1012.6 |
| 20260503230022 | 76 | 299 | 6.0 | 13.0 | 0.00 | 0.00 | 0.00 | 19 | 1012.6 |
| 20260503225046 | 75 | 28 | 5.0 | 8.0 | 0.00 | 0.00 | 0.00 | 19 | 1012.8 |
| 20260503224030 | 76 | 344 | 11.0 | 15.0 | 0.00 | 0.00 | 0.00 | 20 | 1012.8 |
| 20260503223017 | 75 | 9 | 6.0 | 9.0 | 0.00 | 0.00 | 0.00 | 20 | 1012.9 |
| 20260503222021 | 76 | 360 | 8.0 | 12.0 | 0.00 | 0.00 | 0.00 | 21 | 1012.9 |
| 20260503221026 | 75 | 12 | 6.0 | 12.0 | 0.00 | 0.00 | 0.00 | 21 | 1013.2 |
| 20260503220030 | 75 | 147 | 5.0 | 8.0 | 0.00 | 0.00 | 0.00 | 21 | 1013.4 |
| 20260503215017 | 73 | 95 | 4.0 | 7.0 | 0.00 | 0.00 | 0.00 | 22 | 1013.6 |
| 20260503214021 | 73 | 335 | 5.0 | 8.0 | 0.00 | 0.00 | 0.00 | 22 | 1013.8 |
| 20260503213026 | 72 | 2 | 10.0 | 13.0 | 0.00 | 0.00 | 0.00 | 24 | 1013.9 |
| 20260503212024 | 71 | 359 | 11.0 | 16.0 | 0.00 | 0.00 | 0.00 | 25 | 1014.0 |
| 20260503211016 | 72 | 64 | 5.0 | 6.0 | 0.00 | 0.00 | 0.00 | 21 | 1014.2 |
| 20260503210020 | 73 | 115 | 6.0 | 8.0 | 0.00 | 0.00 | 0.00 | 21 | 1014.3 |
| 20260503205019 | 73 | 96 | 7.0 | 9.0 | 0.00 | 0.00 | 0.00 | 21 | 1014.4 |
| 20260503204017 | 73 | 114 | 4.0 | 6.0 | 0.00 | 0.00 | 0.00 | 21 | 1014.6 |
| 20260503203016 | 75 | 179 | 4.0 | 8.0 | 0.00 | 0.00 | 0.00 | 19 | 1014.7 |
| 20260503202100 | 76 | 65 | 4.0 | 7.0 | 0.00 | 0.00 | 0.00 | 19 | 1014.8 |
| 20260503201024 | 73 | 265 | 12.0 | 21.0 | 0.00 | 0.00 | 0.00 | 21 | 1015.0 |
| 20260503200028 | 73 | 175 | 6.0 | 11.0 | 0.00 | 0.00 | 0.00 | 21 | 1015.3 |
| 20260503195015 | 73 | 228 | 6.0 | 8.0 | 0.00 | 0.00 | 0.00 | 22 | 1015.4 |
| 20260503194019 | 75 | 341 | 6.0 | 9.0 | 0.00 | 0.00 | 0.00 | 21 | 1015.6 |
| 20260503193023 | 74 | 5 | 4.0 | 8.0 | 0.00 | 0.00 | 0.00 | 23 | 1015.8 |
| 20260503192047 | 74 | 69 | 6.0 | 8.0 | 0.00 | 0.00 | 0.00 | 23 | 1015.9 |
| 20260503191032 | 0 | 23 | 7.0 | 7.0 | 0.00 | 0.00 | 0.00 | 1016.2 | |
| 20260503190018 | 71 | 49 | 4.0 | 9.0 | 0.00 | 0.00 | 0.00 | 25 | 1016.5 |
| 20260503185022 | 71 | 23 | 5.0 | 5.0 | 0.00 | 0.00 | 0.00 | 25 | 1016.7 |
| 20260503184027 | 73 | 25 | 6.0 | 10.0 | 0.00 | 0.00 | 0.00 | 25 | 1016.7 |
| 20260503183031 | 71 | 16 | 5.0 | 9.0 | 0.00 | 0.00 | 0.00 | 25 | 1016.9 |
| 20260503182017 | 69 | 291 | 7.0 | 10.0 | 0.00 | 0.00 | 0.00 | 27 | 1017.0 |
| 20260503181022 | 70 | 7 | 6.0 | 11.0 | 0.00 | 0.00 | 0.00 | 28 | 1017.3 |
| 20260503180106 | 69 | 19 | 7.0 | 9.0 | 0.00 | 0.00 | 0.00 | 28 | 1017.3 |
| 20260503175051 | 69 | 41 | 8.0 | 11.0 | 0.00 | 0.00 | 0.00 | 30 | 1017.6 |
| 20260503174016 | 67 | 322 | 6.0 | 9.0 | 0.00 | 0.00 | 0.00 | 31 | 1017.7 |
| 20260503173021 | 66 | 23 | 5.0 | 7.0 | 0.00 | 0.00 | 0.00 | 33 | 1017.8 |
| 20260503172025 | 67 | 2 | 7.0 | 10.0 | 0.00 | 0.00 | 0.00 | 32 | 1017.9 |
| 20260503171030 | 64 | 333 | 6.0 | 9.0 | 0.00 | 0.00 | 0.00 | 34 | 1018.1 |
| 20260503140122 | 52 | 324 | 6.0 | 7.0 | 0.00 | 0.00 | 0.00 | 53 | 1019.3 |